STARLINK-31940 (59873 NORAD) Tracking and Keplerian Element Data

This shows tracking and keplerian element data for the satellite.

Feedback or suggestion? Click here.




ElementValue
Catalog59873
NameSTARLINK-31940
Epoch Orbit278
Epoch Day160.16667824
Epoch Year2024
RAAN327.9901
Inclination43.0019
Eccentricity0.0001472
Argument of Perigee252.5061
Mean Anonmoly232.0692
Mean Motion15.73462378
Decay Rate-0.01542686
L11 59873U 24098R 24160.16667824 -.01542686 00000+0 -12030-1 0 9998
L22 59873 43.0019 327.9901 0001472 252.5061 232.0692 15.73462378 2784



Live tracking and technical data element details for STARLINK-31940 (NORAD 59873). STARLINK-31940 can be tracked NOW for your location showing map with azimuth and elevation plus other details from your city location.







IsCatalogInMostPopularTable: catalog: 59873, numindb: 8
Update: records affected: 1



GetName: 59873 STARLINK-31940

Hit Count: updated at: Tue, 16 Jul 2024 02:19:12 GMT